ATLAS 5 CENTAUR DEB, 44675

Orbit data source: Space-Track

ATLAS 5 CENTAUR DEB, 44675 is space debris in HEO originally from a launch on Wed, 17 Oct 2018 UTC launched from the Air Force Eastern Test Range (AFETR). Debris objects in space refer to the collection of defunct objects orbiting the Earth. Examples of debris include non-operational satellites, rocket bodies, and fragments generated from explosions, collisions, or faulty payload assembly.

Loading next visibility...
Identifier
44675, 2018-079AM
Orbit
HEO
Country
Flag of USUS
Related business
Flag of USUnited Launch Alliance/Lockheed Martin (US)
Manufacturer
ULA Decatur
Mission
Spacecraft
Bus & Motor
Unknown
Mass
Unknown
Launch date (UTC)
2018-10-17 (7 years ago)
Launch vehicle
Unknown
Launch site
Air Force Eastern Test Range (AFETR)
Object type
Payload
Rocket body
Debris
Shape & HBR
Unknown
Radar Cross Section
RCS unknown

Expand to show TLE details & history
Last TLE update: 1 day ago

TLE from 1 day ago
0 ATLAS 5 CENTAUR DEB
1 44675U 18079AM  25260.48692267 -.00000168  00000-0  00000-0 0  9996
2 44675  13.1263  60.5321 4663598 262.4736  44.1866  1.80468770 42031
Epoch: 2025-09-17T11:41Z
TLE epoch observation values (Epoch: 2025-09-17T11:41:10.118Z)
Latitude
Longitude
-111.34997°
Altitude
17,348.248 km
Speed
4.429 km/s
True Right ascension
04h 02m 25s
True Declination
0° 00' 00"
Sunlit
Object was in daylight at epoch
Visualization orbit readout
Latitude
Unknown
Longitude
Unknown
Altitude
Unknown
Speed
Unknown
Apparent Right ascension
Unknown
Apparent Declination
Unknown
Sunlit
N/A
Visualization observer readout
Local Sidereal Time
10:52:51
Azimuth
Unknown
Elevation
Unknown
Doppler factor
Unknown
Orbital elements
Apogee altitude
35,411.892 km
Perigee altitude
8,830.163 km
Semi-major axis
28,499.165 km
Eccentricity
0.46636
Inclination
13.1263°
RAAN
60.5321°
Arg. of periapsis
262.4736°
True anomaly
97.61852°
Mean anomaly
44.1866°
Eccentric anomaly
69.15872°
Mean motion
0.45112 °/min
Orbital period
798.01 mins
BSTAR
0
Loading maneuver chart data...
Computing Atmospheric mass density...

Documentation

Showing up to 5 results
|